Home > Weather > Springe > Past weeks

Flag for Germany Past Weather in Springe, Lower Saxony, Germany — Yesterday and Last 2 Weeks

Now
68 °F

Passing clouds.


Feels Like: 68 °F
Forecast: 56 / 68 °F
Wind: 1 mph from Northwest

Location: Wunstorf Airport

Current Time: Jun 28, 2016 at 5:07:08 PM

Latest Report: Jun 28, 2016 at 4:20 PM


Visibility: N/A

Pressure: 30.04 "Hg

Humidity: 43%

Dew Point: 45 °F

Location of SpringeLocation

Past Weather in Springe — Graph

°F

Springe Temperature Yesterday

Maximum temperature yesterday: 72 °F (at 2:20 PM)
Minimum temperature yesterday: 54 °F (at 1:20 AM)
Average temperature yesterday: 62 °F

High & Low Weather Summary for the Past Weeks

 TemperatureHumidityPressure
High90 °F (Jun 23, 3:20 PM)94% (Jun 13, 3:20 PM)30.21 "Hg (Jun 13, 3:20 PM)
Low48 °F (Jun 20, 3:20 AM)40% (Jun 28, 3:20 PM)29.45 "Hg (Jun 14, 5:20 PM)
Average64 °F77%29.90 "Hg
* Reported Jun 13 3:20 PM — Jun 28 3:20 PM, Springe, Weather by CustomWeather, © 2016

Note: Actual official high and low records may vary slightly from our data, if they occured in-between our weather recording intervals... More about our weather records

Advertising

Springe Weather History for the Previous 24 Hours

Scroll right to see more
 ConditionsComfort  
Time TempWeatherWind HumidityBarometerVisibility
3:20 PM
Tue, Jun 28
68 °FPassing clouds.5 mph40%30.04 "HgN/A
2:20 PM66 °FScattered clouds.5 mph43%30.04 "HgN/A
1:20 PM66 °FScattered clouds.6 mph46%30.07 "HgN/A
12:20 PM64 °FScattered clouds.9 mph49%30.09 "HgN/A
11:20 AM63 °FScattered clouds.7 mph56%30.09 "HgN/A
10:20 AM61 °FScattered clouds.8 mph59%30.09 "HgN/A
9:20 AM59 °FPassing clouds.7 mph72%30.09 "HgN/A
8:20 AM57 °FScattered clouds.6 mph82%30.09 "HgN/A
7:20 AM55 °FScattered clouds.6 mph88%30.09 "HgN/A
6:20 AM54 °FScattered clouds.5 mph94%30.09 "HgN/A
5:20 AM54 °FPassing clouds.7 mph94%30.07 "HgN/A
4:20 AM55 °FCool.6 mph94%30.07 "Hg3 mi
3:20 AM57 °FCool.6 mph94%30.07 "Hg3 mi
2:20 AM57 °FCool.12 mph88%30.07 "Hg4 mi
1:20 AM59 °FCool.12 mph94%30.07 "Hg4 mi
12:20 AM61 °FCool.6 mph88%30.04 "Hg4 mi
11:20 PM
Mon, Jun 27
61 °FCool.7 mph94%30.04 "Hg2 mi
10:20 PM61 °FCool.6 mph94%30.04 "Hg2 mi
9:20 PM63 °FMild.8 mph83%30.01 "Hg4 mi
8:20 PM63 °FMild.8 mph83%30.01 "Hg4 mi
7:20 PM64 °FLight rain. Partly sunny.13 mph78%30.01 "HgN/A
6:20 PM66 °FPartly sunny.13 mph64%30.01 "HgN/A
5:20 PM68 °FPartly sunny.15 mph60%30.01 "HgN/A
Weather by CustomWeather, © 2016

See weather overviewHow to use our weather pages